This is the latest recevied weather packets stored in our database for station/object K2CAT. If no packets are shown the sender has not sent any weather packets the latest 10 day(s).
| Time | Temp. | Humidity | Pressure | Rain* | Wind** | Luminosity | Snow |
|---|---|---|---|---|---|---|---|
| 1777054436 | 16.11° C | 29% | 1010 hPa | 0 mm | - | 647 W/m² | - |
| 1777054135 | 15.56° C | 24% | 1010.5 hPa | 0 mm | - | 653 W/m² | - |
| 1777053830 | 16.11° C | 26% | 1010.3 hPa | 0 mm | - | 657 W/m² | - |
| 1777053530 | 15.56° C | 33% | 1010.5 hPa | 0 mm | - | 662 W/m² | - |
| 1777053226 | 15° C | 33% | 1010.3 hPa | 0 mm | - | 666 W/m² | - |
| 1777052923 | 16.11° C | 35% | 1010.3 hPa | 0 mm | - | 671 W/m² | - |
| 1777052618 | 15.56° C | 33% | 1010.5 hPa | 0 mm | - | 674 W/m² | - |
| 1777052313 | 15.56° C | 32% | 1010.4 hPa | 0 mm | - | 678 W/m² | - |
| 1777052010 | 16.11° C | 40% | 1010.5 hPa | 0 mm | - | 681 W/m² | - |
| 1777051707 | 16.11° C | 34% | 1010.6 hPa | 0 mm | - | 683 W/m² | - |
| 1777051403 | 15.56° C | 38% | 1010.5 hPa | 0 mm | - | 685 W/m² | - |
| 1777051100 | 15.56° C | 39% | 1010.5 hPa | 0 mm | - | 687 W/m² | - |
| 1777050795 | 15° C | 38% | 1010.9 hPa | 0 mm | - | 689 W/m² | - |
| 1777050491 | 15° C | 40% | 1010.7 hPa | 0 mm | - | 689 W/m² | - |
| 1777050190 | 15° C | 37% | 1010.8 hPa | 0 mm | - | 692 W/m² | - |
| 1777049886 | 14.44° C | 40% | 1010.6 hPa | 0 mm | - | 693 W/m² | - |
| 1777049581 | 14.44° C | 41% | 1011 hPa | 0 mm | - | 692 W/m² | - |
| 1777049279 | 14.44° C | 39% | 1010.9 hPa | 0 mm | - | 691 W/m² | - |
| 1777048975 | 14.44° C | 38% | 1011.1 hPa | 0 mm | - | 692 W/m² | - |
| 1777048675 | 13.89° C | 38% | 1011 hPa | 0 mm | - | 692 W/m² | - |
| 1777048371 | 14.44° C | 42% | 1011.1 hPa | 0 mm | - | 690 W/m² | - |
| 1777048070 | 15° C | 37% | 1011.2 hPa | 0 mm | - | 689 W/m² | - |
| 1777047767 | 13.89° C | 43% | 1011.3 hPa | 0 mm | - | 687 W/m² | - |
| 1777047463 | 13.89° C | 38% | 1011.2 hPa | 0 mm | - | 684 W/m² | - |
| 1777047163 | 13.89° C | 39% | 1011.2 hPa | 0 mm | - | 681 W/m² | - |
* Rain latest hour (hover to see other rain measurements)
** Current wind speed in m/s (hover to see current wind gust speed)